Location: Seminole
(32.7190°N, 102.6440°W)
Time: 23:11:05
(UTC-05:00)

Meteor 2-10 - Visible Passes

Search period start: 29 August 2014 00:00
Search period end: 08 September 2014 00:00
Orbit: 738 x 870 km, 81.2° (Epoch: 29 August)

Date Brightness Start Highest point End Pass type
(mag) Time Alt. Az. Time Alt. Az. Time Alt. Az.
29 Aug 3.9 05:43:40 31° SSW 05:46:14 73° W 05:51:25 10° N visible
30 Aug 4.1 05:18:50 46° SSE 05:20:24 74° E 05:25:33 10° NNE visible
31 Aug 4.8 04:53:56 45° ESE 04:54:35 47° E 04:59:32 10° NNE visible
31 Aug 5.6 06:35:01 14° W 06:36:42 15° WNW 06:39:43 10° NW visible
01 Sep 5.6 04:28:59 30° E 04:28:59 30° E 04:33:18 10° NNE visible
01 Sep 5.1 06:10:03 23° W 06:10:41 23° WNW 06:14:46 10° NNW visible
02 Sep 6.3 04:03:57 19° ENE 04:03:57 19° ENE 04:06:46 10° NE visible
02 Sep 4.7 05:45:02 35° WNW 05:45:02 35° WNW 05:49:25 10° NNW visible
03 Sep 6.8 03:38:53 11° ENE 03:38:53 11° ENE 03:39:35 10° ENE visible
03 Sep 4.5 05:19:57 45° NW 05:19:57 45° NW 05:23:50 10° N visible
04 Sep 5.0 04:54:50 40° N 04:54:50 40° N 04:58:04 10° N visible
05 Sep 5.7 04:29:40 29° NNE 04:29:40 29° NNE 04:32:09 10° NNE visible
05 Sep 6.1 06:10:43 10° NW 06:10:43 10° NW 06:10:47 10° NW visible
06 Sep 6.3 04:04:28 19° NE 04:04:28 19° NE 04:06:03 10° NNE visible
06 Sep 6.0 05:45:31 14° NW 05:45:31 14° NW 05:46:40 10° NNW visible
07 Sep 6.8 03:39:14 12° NE 03:39:14 12° NE 03:39:44 10° NE visible
07 Sep 6.0 05:20:17 16° NNW 05:20:17 16° NNW 05:21:34 10° NNW visible
